Torna al catalogo

STARLINK-34442

AttivoComunicazioniVLEO
NORAD 64672·PAYLOAD·🇺🇸 United States

Lanciato Jun 28, 2025 da Cape Canaveral Space Force Station

Loading…

Prossimi Passaggi (prossime 24 ore)

TLE

AggiornatoSource: CelesTrak SupGP

Epoca: Sep 14, 2026, 23:03 UTC

1 64672C 25139J   26257.96090278  .00029138  00000+0  86052-3 0  2571
2 64672  53.1587 323.5271 0001452 107.6379 265.0521 15.34389415    19

Traccia STARLINK-34442 in tempo reale con AllMySat

Download on the App Store